Key West, FL

3:32 PM EDT on August 24, 2016 (GMT -0400)
Key West International

Weather History for KEYW - October, 2012

Change the Weather History Date:

Tuesday, October 2, 2012

  Actual Average Record
Temperature  
Mean Temperature 80 °F 82 °F  
Max Temperature 85 °F 87 °F 92 °F (1952)
Min Temperature 75 °F 78 °F 69 °F (1920)
Degree Days  
Heating Degree Days 0 0  
Month to date heating degree days 0 0  
Since 1 July heating degree days 0 0  
Cooling Degree Days 15 17  
Month to date cooling degree days 32 34  
Year to date cooling degree days 3883 3769  
Growing Degree Days 30 (Base 50)    
Moisture  
Dew Point 75 °F    
Average Humidity 83    
Maximum Humidity 91    
Minimum Humidity 74    
Precipitation  
Precipitation 1.04 in 0.19 in 3.85 in (1947)
Month to date precipitation 1.33 0.38  
Year to date precipitation 44.21 30.76  
Snow  
Snow 0.00 in - - ()
Month to date snowfall 0.0  
Since 1 July snowfall 0.0  
Since 1 September snowfall 0.0  
Snow Depth 0.00 in    
Sea Level Pressure  
Sea Level Pressure 29.94 in    
Wind  
Wind Speed 13 mph (South)    
Max Wind Speed 25 mph    
Max Gust Speed 32 mph    
Visibility 9 miles    
Events Rain    
T = Trace of Precipitation, MM = Missing Value Source: NWS Daily Summary

Daily Weather History Graph

Daily Weather History Graph

Search for Another Location

Airport or City:

Trip Planner

Search our weather history database for the weather conditions in past years. The results will help you decide how hot, cold, wet, or windy it might be!

Date:

Astronomy

Oct. 02, 2012 Rise Set
Actual Time 7:19 AM EDT 7:12 PM EDT
Civil Twilight 6:56 AM EDT 7:35 PM EDT
Nautical Twilight 6:30 AM EDT 8:01 PM EDT
Astronomical Twilight 6:04 AM EDT 8:27 PM EDT
Moon 8:46 PM EDT (10/2) 9:25 AM EDT (10/2)
Length of Visible Light 12h 38m
Length of Day
11h 52m
Waning Gibbous, 94% of the Moon is Illuminated
Oct 2
Waning Gibbous
Oct 8
Last Quarter
Oct 15
New
Oct 21
First Quarter
Oct 29
Full

Hourly Weather History & Observations

Time (EDT) Temp. Heat Index Dew Point Humidity Pressure Visibility Wind Dir Wind Speed Gust Speed Precip Events Conditions
12:53 AM 81.0 °F 87.3 °F 75.9 °F 85% 29.88 in 10.0 mi SSW 12.7 mph - 0.00 in   Scattered Clouds
1:00 AM 82.4 °F 89.5 °F 75.2 °F 79% 29.88 in 10.0 mi SSW 17.3 mph 21.9 mph N/A   Mostly Cloudy
1:08 AM 82.4 °F 89.5 °F 75.2 °F 79% 29.88 in 10.0 mi SSW 15.0 mph 21.9 mph N/A   Scattered Clouds
1:53 AM 82.4 °F 89.5 °F 75.2 °F 79% 29.88 in 10.0 mi South 15.0 mph - N/A   Scattered Clouds
2:53 AM 82.4 °F 89.5 °F 75.2 °F 79% 29.87 in 10.0 mi SSW 17.3 mph 24.2 mph N/A   Partly Cloudy
3:41 AM 80.6 °F 86.2 °F 75.2 °F 84% 29.86 in 10.0 mi SSW 21.9 mph 28.8 mph 0.00 in   Mostly Cloudy
3:49 AM 80.6 °F 86.2 °F 75.2 °F 84% 29.86 in 10.0 mi SSW 24.2 mph 32.2 mph N/A   Mostly Cloudy
3:53 AM 79.0 °F - 73.0 °F 82% 29.87 in 10.0 mi SSW 19.6 mph 31.1 mph 0.00 in   Scattered Clouds
4:53 AM 82.0 °F 89.4 °F 75.9 °F 82% 29.88 in 10.0 mi South 23.0 mph 29.9 mph 0.01 in   Scattered Clouds
5:26 AM 80.6 °F 86.2 °F 75.2 °F 84% 29.88 in 10.0 mi South 21.9 mph 29.9 mph N/A   Mostly Cloudy
5:36 AM 80.6 °F 86.2 °F 75.2 °F 84% 29.88 in 10.0 mi South 20.7 mph - N/A   Scattered Clouds
5:53 AM 82.0 °F 88.6 °F 75.0 °F 79% 29.89 in 10.0 mi South 21.9 mph 28.8 mph N/A   Mostly Cloudy
6:53 AM 82.0 °F 88.6 °F 75.0 °F 79% 29.90 in 10.0 mi South 24.2 mph 28.8 mph N/A   Mostly Cloudy
7:53 AM 79.0 °F - 73.9 °F 84% 29.92 in 10.0 mi SSW 13.8 mph 23.0 mph 0.00 in Rain Light Rain
8:53 AM 82.0 °F 88.6 °F 75.0 °F 79% 29.93 in 10.0 mi South 15.0 mph - 0.00 in   Partly Cloudy
9:53 AM 82.0 °F 88.6 °F 75.0 °F 79% 29.95 in 10.0 mi South 13.8 mph - N/A   Clear
10:53 AM 84.0 °F 92.6 °F 75.9 °F 76% 29.96 in 10.0 mi South 12.7 mph - N/A   Partly Cloudy
11:53 AM 84.9 °F 94.1 °F 75.9 °F 74% 29.97 in 10.0 mi South 10.4 mph - N/A   Scattered Clouds
12:53 PM 84.9 °F 94.1 °F 75.9 °F 74% 29.97 in 10.0 mi South 15.0 mph - N/A   Scattered Clouds
1:21 PM 84.2 °F 92.3 °F 75.2 °F 74% 29.96 in 10.0 mi South 12.7 mph - N/A   Mostly Cloudy
1:32 PM 84.2 °F 92.3 °F 75.2 °F 74% 29.96 in 10.0 mi South 13.8 mph - N/A   Mostly Cloudy
1:53 PM 80.1 °F 84.5 °F 73.9 °F 81% 29.96 in 2.5 mi SSW 11.5 mph 24.2 mph 0.05 in Rain Heavy Rain
2:07 PM 80.6 °F 85.4 °F 73.4 °F 79% 29.94 in 6.0 mi South 13.8 mph 20.7 mph 0.13 in Rain Light Rain
2:30 PM 78.8 °F - 73.4 °F 83% 29.95 in 1.8 mi South 11.5 mph - 0.30 in Rain Heavy Rain
2:45 PM 77.0 °F - 73.4 °F 89% 29.96 in 3.0 mi South 9.2 mph - 0.54 in Rain Heavy Rain
2:48 PM 75.2 °F - 71.6 °F 89% 29.96 in 2.5 mi South 9.2 mph - 0.58 in Rain Heavy Rain
2:53 PM 75.0 °F - 72.0 °F 90% 29.96 in 2.0 mi South 10.4 mph - 0.68 in Rain Heavy Rain
3:07 PM 75.2 °F - 73.4 °F 94% 29.95 in 3.0 mi South 8.1 mph - 0.20 in Rain Heavy Rain
3:14 PM 75.2 °F - 73.4 °F 94% 29.94 in 6.0 mi South 8.1 mph - 0.22 in Rain Rain
3:53 PM 78.1 °F - 73.9 °F 87% 29.95 in 10.0 mi SSE 11.5 mph - 0.24 in Rain Rain
4:53 PM 81.0 °F 86.7 °F 75.0 °F 82% 29.94 in 10.0 mi SSW 4.6 mph - 0.00 in   Partly Cloudy
5:53 PM 82.0 °F 88.6 °F 75.0 °F 79% 29.96 in 10.0 mi South 4.6 mph - N/A   Overcast
6:17 PM 80.6 °F 86.2 °F 75.2 °F 84% 29.96 in 10.0 mi SE 9.2 mph 18.4 mph 0.00 in Rain Light Rain
6:27 PM 80.6 °F 86.2 °F 75.2 °F 84% 29.96 in 10.0 mi SE 8.1 mph - 0.01 in Rain Light Rain
6:53 PM 80.1 °F 85.8 °F 77.0 °F 90% 29.97 in 10.0 mi SSE 12.7 mph - 0.01 in   Partly Cloudy
7:53 PM 82.0 °F 87.4 °F 73.0 °F 74% 29.99 in 10.0 mi South 6.9 mph - 0.00 in   Mostly Cloudy
8:53 PM 80.1 °F 85.1 °F 75.0 °F 85% 30.03 in 10.0 mi South 10.4 mph - 0.01 in Rain Rain
9:53 PM 79.0 °F - 75.9 °F 90% 30.05 in 10.0 mi SSW 6.9 mph - 0.04 in   Mostly Cloudy
10:53 PM 78.1 °F - 73.0 °F 84% 30.06 in 10.0 mi South 13.8 mph - 0.00 in Rain Light Rain
11:53 PM 78.1 °F - 73.9 °F 87% 30.05 in 10.0 mi SSW 6.9 mph - 0.00 in Rain Light Rain